Hourly Data Report for October 02, 2017

All times are specified in Local Standard Time (LST). Add 1 hour to adjust for Daylight Saving Time where and when it is observed.

FREDERICTON
NEW BRUNSWICK

45°52'08.000" N
66°32'14.000" W
20.70 m
8101505
71700
YFC

Download Data

Hourly Data (October 2017)
Hourly Data Report for October 2, 2017
Temp Definition
°C
Dew Point Temp Definition
°C
Rel Hum Definition
%
Wind Dir Definition
10's deg

Wind Spd Definition
km/h
Visibility Definition
km
Stn Press Definition
kPa
Hmdx Definition


Wind Chill Definition


Weather Definition


TIME
00:00 Legend Double Dagger 4.6 3.0 89   0 16.1 101.85     LegendNANA
01:00 Legend Double Dagger 9.1 4.2 71 30 9 16.1 101.88     LegendNANA
02:00 Legend Double Dagger 4.9 2.6 85 31 5 16.1 101.91     LegendNANA
03:00 Legend Double Dagger 7.8 4.7 80 33 8 16.1 101.93     LegendNANA
04:00 Legend Double Dagger 4.0 2.4 89   0 16.1 102.00     LegendNANA
05:00 Legend Double Dagger 1.3 0.9 97 23 4 16.1 102.11     LegendNANA
06:00 Legend Double Dagger 2.1 1.8 98 LegendMM 4 16.1 102.18     LegendNANA
07:00 Legend Double Dagger 1.6 0.5 92   0 16.1 102.34     LegendNANA
08:00 Legend Double Dagger 8.2 5.3 82 33 5 16.1 102.45     LegendNANA
09:00 Legend Double Dagger 10.8 3.0 59 3 11 16.1 102.51     LegendNANA
10:00 Legend Double Dagger 11.4 3.6 58 35 18 16.1 102.59     LegendNANA
11:00 Legend Double Dagger 13.0 1.0 44 2 24 16.1 102.61     LegendNANA
12:00 Legend Double Dagger 14.2 -1.2 35 36 22 16.1 102.62     LegendNANA
13:00 Legend Double Dagger 14.9 -0.8 34 36 22 16.1 102.61     LegendNANA
14:00 Legend Double Dagger 15.5 -1.0 32 2 22 16.1 102.64     LegendNANA
15:00 Legend Double Dagger 15.4 -2.0 30 2 24 16.1 102.69     LegendNANA
16:00 Legend Double Dagger 15.2 -1.8 31 2 15 16.1 102.72     LegendNANA
17:00 Legend Double Dagger 14.2 -2.3 32 1 17 16.1 102.79     LegendNANA
18:00 Legend Double Dagger 11.7 -1.8 39 4 8 16.1 102.89     LegendNANA
19:00 Legend Double Dagger 7.7 1.1 63 34 4 16.1 102.98     LegendNANA
20:00 Legend Double Dagger 2.7 0.9 88   0 16.1 103.08     LegendNANA
21:00 Legend Double Dagger 2.9 0.5 84 LegendMM 4 16.1 103.18     LegendNANA
22:00 Legend Double Dagger 2.3 0.0 85 32 5 16.1 103.21     LegendNANA
23:00 Legend Double Dagger 1.2 -0.2 90 LegendMM 4 16.1 103.26     LegendNANA

Notes on Data Quality.

Legend

  • E = Estimated
  • M = Missing
  • NA = Not Available
  • ‡ = Partner data that is not subject to review by the National Climate Archives
Date modified: